When you browse on this site, cookies collect data to enhance your experience and personalize the content and advertising you see.
Visit our Privacy Policy to learn more. By continuing to use the site, you agree to this use of cookies and data.

Previsão horária em Ogarevo

Hoje, 4 Julho, Sábado

Tempo Temperatura Precipitação Vento Pressão Humidade
00:00 +20°C° 0 mm 1 m/s 745 mmHg 91%
01:00 +20°C° 0 mm 1 m/s 745 mmHg 91%
02:00 +19°C° 0 mm 2 m/s 745 mmHg 91%
03:00 +19°C° 0 mm 2 m/s 745 mmHg 88%
04:00 +19°C° 0 mm 2 m/s 745 mmHg 88%
05:00 +20°C° 0 mm 2 m/s 745 mmHg 87%
06:00 +21°C° 0 mm 2 m/s 745 mmHg 87%
07:00 +22°C° 0 mm 3 m/s 745 mmHg 83%
08:00 +25°C° 0 mm 3 m/s 745 mmHg 79%
09:00 +26°C° 0 mm 3 m/s 745 mmHg 73%
10:00 +27°C° 0 mm 4 m/s 745 mmHg 69%
11:00 +28°C° 0 mm 4 m/s 745 mmHg 66%
12:00 +29°C° 0 mm 4 m/s 744 mmHg 62%
13:00 +30°C° 0.3 mm 4 m/s 744 mmHg 62%
14:00 +30°C° 0.3 mm 4 m/s 744 mmHg 63%
15:00 +30°C° 0.3 mm 4 m/s 744 mmHg 63%
16:00 +29°C° 0.5 mm 4 m/s 743 mmHg 68%
17:00 +28°C° 0.5 mm 3 m/s 743 mmHg 73%
18:00 +28°C° 0.5 mm 2 m/s 743 mmHg 77%
19:00 +26°C° 0.2 mm 3 m/s 743 mmHg 80%
20:00 +25°C° 0.2 mm 3 m/s 743 mmHg 83%
21:00 +24°C° 0.2 mm 3 m/s 743 mmHg 85%
22:00 +22°C° 1.2 mm 3 m/s 743 mmHg 85%
23:00 +21°C° 1.2 mm 3 m/s 743 mmHg 85%

Amanhã, 5 Julho, Domingo

Tempo Temperatura Precipitação Vento Pressão Humidade
00:00 +20°C° 1.2 mm 3 m/s 742 mmHg 85%
01:00 +20°C° 1 mm 2 m/s 742 mmHg 87%
02:00 +19°C° 1 mm 2 m/s 743 mmHg 89%
03:00 +19°C° 1 mm 2 m/s 743 mmHg 90%
04:00 +19°C° 0.3 mm 2 m/s 742 mmHg 90%
05:00 +20°C° 0.3 mm 2 m/s 742 mmHg 90%
06:00 +21°C° 0.3 mm 2 m/s 742 mmHg 89%
07:00 +23°C° 0 mm 2 m/s 742 mmHg 85%
08:00 +25°C° 0 mm 2 m/s 742 mmHg 82%
09:00 +26°C° 0 mm 2 m/s 742 mmHg 78%
10:00 +27°C° 0.1 mm 3 m/s 742 mmHg 74%
11:00 +28°C° 0.1 mm 3 m/s 742 mmHg 71%
12:00 +29°C° 0.1 mm 3 m/s 742 mmHg 67%
13:00 +29°C° 0.7 mm 4 m/s 742 mmHg 69%
14:00 +28°C° 0.7 mm 5 m/s 742 mmHg 71%
15:00 +28°C° 0.7 mm 6 m/s 742 mmHg 72%
16:00 +27°C° 0.3 mm 4 m/s 742 mmHg 75%
17:00 +26°C° 0.3 mm 2 m/s 742 mmHg 78%
18:00 +26°C° 0.3 mm 1 m/s 742 mmHg 81%
19:00 +25°C° 0 mm 1 m/s 742 mmHg 83%
20:00 +24°C° 0 mm 1 m/s 741 mmHg 84%
21:00 +23°C° 0 mm 1 m/s 741 mmHg 85%
22:00 +22°C° 0 mm 1 m/s 741 mmHg 86%
23:00 +22°C° 0 mm 1 m/s 741 mmHg 87%

Depois de amanhã, 6 Julho, Segunda-feira

Tempo Temperatura Precipitação Vento Pressão Humidade
00:00 +22°C° 0 mm 1 m/s 741 mmHg 88%
01:00 +21°C° 0.1 mm 1 m/s 741 mmHg 89%
02:00 +21°C° 0.1 mm 1 m/s 741 mmHg 90%
03:00 +21°C° 0.1 mm 1 m/s 741 mmHg 91%
04:00 +21°C° 0 mm 1 m/s 741 mmHg 90%
05:00 +22°C° 0 mm 1 m/s 741 mmHg 89%
06:00 +23°C° 0 mm 1 m/s 741 mmHg 88%
07:00 +24°C° 0 mm 1 m/s 742 mmHg 83%
08:00 +25°C° 0 mm 2 m/s 742 mmHg 78%
09:00 +27°C° 0 mm 2 m/s 742 mmHg 74%
10:00 +28°C° 0 mm 2 m/s 742 mmHg 70%
11:00 +29°C° 0 mm 3 m/s 742 mmHg 66%
12:00 +30°C° 0 mm 3 m/s 742 mmHg 62%
13:00 +30°C° 0 mm 3 m/s 742 mmHg 61%
14:00 +30°C° 0 mm 3 m/s 742 mmHg 60%
15:00 +30°C° 0 mm 3 m/s 742 mmHg 60%
16:00 +30°C° 0 mm 3 m/s 742 mmHg 62%
17:00 +30°C° 0 mm 2 m/s 742 mmHg 65%
18:00 +30°C° 0 mm 2 m/s 742 mmHg 68%
19:00 +28°C° 0 mm 1 m/s 742 mmHg 69%
20:00 +26°C° 0 mm 1 m/s 742 mmHg 71%
21:00 +24°C° 0 mm 1 m/s 742 mmHg 73%
22:00 +24°C° 0 mm 1 m/s 742 mmHg 75%
23:00 +23°C° 0 mm 1 m/s 742 mmHg 77%

7 Julho, Terça-feira

Tempo Temperatura Precipitação Vento Pressão Humidade
00:00 +23°C° 0 mm 1 m/s 742 mmHg 79%
01:00 +21°C° 0 mm 2 m/s 742 mmHg 81%
02:00 +21°C° 0 mm 2 m/s 742 mmHg 83%
03:00 +21°C° 0 mm 2 m/s 742 mmHg 84%
04:00 +21°C° 0 mm 2 m/s 743 mmHg 83%
05:00 +23°C° 0 mm 2 m/s 743 mmHg 83%
06:00 +23°C° 0 mm 2 m/s 743 mmHg 82%
07:00 +25°C° 0 mm 3 m/s 743 mmHg 77%
08:00 +26°C° 0 mm 3 m/s 743 mmHg 73%
09:00 +28°C° 0 mm 3 m/s 743 mmHg 69%
10:00 +29°C° 0 mm 3 m/s 743 mmHg 65%
11:00 +30°C° 0 mm 4 m/s 743 mmHg 61%
12:00 +32°C° 0 mm 4 m/s 743 mmHg 57%
13:00 +33°C° 0 mm 4 m/s 743 mmHg 55%
14:00 +33°C° 0 mm 3 m/s 743 mmHg 53%
15:00 +34°C° 0 mm 3 m/s 742 mmHg 51%
16:00 +33°C° 0 mm 3 m/s 742 mmHg 56%
17:00 +33°C° 0 mm 3 m/s 742 mmHg 60%
18:00 +31°C° 0 mm 2 m/s 742 mmHg 65%
19:00 +29°C° 0 mm 2 m/s 742 mmHg 68%
20:00 +27°C° 0 mm 2 m/s 742 mmHg 71%
21:00 +25°C° 0 mm 3 m/s 742 mmHg 73%
22:00 +25°C° 0 mm 2 m/s 742 mmHg 73%
23:00 +24°C° 0 mm 2 m/s 742 mmHg 73%

8 Julho, Quarta-feira

Tempo Temperatura Precipitação Vento Pressão Humidade
00:00 +23°C° 0 mm 2 m/s 743 mmHg 72%
01:00 +23°C° 0 mm 2 m/s 742 mmHg 75%
02:00 +21°C° 0 mm 2 m/s 742 mmHg 77%
03:00 +21°C° 0 mm 2 m/s 742 mmHg 79%
04:00 +21°C° 0 mm 2 m/s 742 mmHg 80%
05:00 +22°C° 0 mm 3 m/s 743 mmHg 81%
06:00 +24°C° 0 mm 3 m/s 743 mmHg 82%
07:00 +25°C° 0 mm 3 m/s 742 mmHg 79%
08:00 +26°C° 0 mm 4 m/s 742 mmHg 75%
09:00 +28°C° 0 mm 4 m/s 742 mmHg 71%
10:00 +29°C° 0 mm 5 m/s 742 mmHg 68%
11:00 +29°C° 0 mm 5 m/s 742 mmHg 65%
12:00 +30°C° 0 mm 5 m/s 742 mmHg 62%
13:00 +30°C° 0.1 mm 5 m/s 741 mmHg 62%
14:00 +30°C° 0.1 mm 5 m/s 741 mmHg 62%
15:00 +30°C° 0.1 mm 5 m/s 741 mmHg 61%
16:00 +30°C° 0 mm 5 m/s 741 mmHg 65%
17:00 +30°C° 0 mm 4 m/s 741 mmHg 69%
18:00 +29°C° 0 mm 4 m/s 740 mmHg 73%
19:00 +28°C° 0 mm 4 m/s 740 mmHg 76%
20:00 +26°C° 0 mm 4 m/s 740 mmHg 78%
21:00 +25°C° 0 mm 4 m/s 740 mmHg 80%
22:00 +25°C° 0 mm 4 m/s 740 mmHg 79%
23:00 +23°C° 0 mm 5 m/s 739 mmHg 78%

9 Julho, Quinta-feira

Tempo Temperatura Precipitação Vento Pressão Humidade
00:00 +23°C° 0 mm 5 m/s 739 mmHg 77%
01:00 +23°C° 0 mm 5 m/s 739 mmHg 76%
02:00 +23°C° 0 mm 5 m/s 738 mmHg 75%
03:00 +22°C° 0 mm 5 m/s 738 mmHg 74%
04:00 +22°C° 0 mm 5 m/s 738 mmHg 75%
05:00 +22°C° 0 mm 5 m/s 738 mmHg 77%
06:00 +22°C° 0 mm 5 m/s 738 mmHg 78%
07:00 +25°C° 0 mm 5 m/s 738 mmHg 75%
08:00 +26°C° 0 mm 5 m/s 737 mmHg 72%
09:00 +28°C° 0 mm 5 m/s 737 mmHg 68%
10:00 +29°C° 0 mm 5 m/s 737 mmHg 64%
11:00 +30°C° 0 mm 5 m/s 737 mmHg 60%
12:00 +32°C° 0 mm 6 m/s 737 mmHg 56%
13:00 +32°C° 0 mm 5 m/s 737 mmHg 58%
14:00 +32°C° 0 mm 5 m/s 737 mmHg 59%
15:00 +30°C° 0 mm 5 m/s 737 mmHg 60%
16:00 +30°C° 0 mm 4 m/s 737 mmHg 62%
17:00 +29°C° 0 mm 3 m/s 737 mmHg 64%
18:00 +29°C° 0 mm 2 m/s 737 mmHg 66%
19:00 +27°C° 0.1 mm 2 m/s 737 mmHg 68%
20:00 +26°C° 0.1 mm 3 m/s 738 mmHg 70%
21:00 +25°C° 0.1 mm 3 m/s 738 mmHg 72%
22:00 +23°C° 0.4 mm 2 m/s 738 mmHg 76%
23:00 +21°C° 0.4 mm 2 m/s 738 mmHg 81%
Mostrar mais